[[{"header":{"parameterUnit":"m.s-1","parameterCategory":2,"la1":30.2991,"la2":30.254,"lo1":-89.0895,"lo2":-89.0444,"dy":0.0017,"dx":0.0017,"nx":28,"ny":28,"refTime":"2025-08-30T09:00:00:Z","depth":"0","parameterNumber":2,"parameterNumberName":"U-component_of_CURRENTS"},"data":[0,0,0,0,0,0,0,0,0,0,0,0,0,0,0,0,0,0,0,0,0,0,0,0,0,0,0,0,0,0,0,0,0,0,0,0,0,0,0,0,0,0,0,0,0,0,0,0,0,0,0,0,0,0,0,0,0,0,-0.2242,-0.2242,0,-0.2292,-0.2293,-0.2294,-0.2305,-0.2304,-0.2304,-0.2303,-0.2421,-0.2425,-0.2428,0,0,0,0,0,0,0,0,0,0,0,0,0,-0.2209,-0.2209,-0.2242,-0.2242,-0.2243,-0.2292,-0.2293,-0.2294,-0.2305,-0.2304,-0.2304,-0.2303,-0.242,-0.2424,-0.2429,0,0,0,0,0,0,0,0,0,0,0,0,0,-0.2239,-0.2209,-0.2242,-0.2253,-0.2254,-0.2292,-0.2293,-0.2294,-0.2305,-0.2304,-0.2303,-0.2303,-0.2419,-0.2424,-0.2429,-0.2479,0,0,-0.2446,-0.2448,0,0,0,0,0,0,0,0,-0.2238,-0.2241,-0.2251,-0.2252,-0.2254,-0.229,-0.2325,-0.2359,-0.2305,-0.2288,-0.2303,-0.2302,-0.2383,-0.2391,-0.2404,-0.2484,-0.2489,-0.2446,-0.245,-0.2452,-0.2454,0,0,0,0,0,0,0,-0.2235,-0.2239,-0.2264,-0.2251,-0.2253,-0.2274,-0.2277,-0.2331,-0.2342,-0.2289,-0.229,-0.2293,-0.2384,-0.2399,-0.2407,-0.2491,-0.2446,-0.2451,-0.2454,-0.2457,-0.2633,-0.2634,0,0,0,0,0,0,-0.2224,-0.2237,-0.2262,-0.2265,-0.2242,-0.2275,-0.2278,-0.2281,-0.234,-0.2347,-0.2293,-0.2293,-0.239,-0.2401,-0.2411,-0.2467,-0.2452,-0.2457,-0.246,-0.2631,-0.2633,-0.2634,0,0,0,0,0,0,-0.2223,-0.2225,-0.226,-0.2251,-0.2256,-0.2275,-0.2278,-0.2282,-0.2289,-0.2342,-0.235,-0.2295,-0.239,-0.2404,-0.2477,-0.2472,-0.246,-0.2464,-0.263,-0.2632,-0.2634,-0.2584,0,0,0,0,0,0,-0.2222,-0.2225,-0.2223,-0.225,-0.2256,-0.2282,-0.2279,-0.2283,-0.2291,-0.2291,-0.2347,-0.2357,-0.239,-0.2469,-0.2482,-0.2479,-0.2469,-0.2628,-0.2631,-0.2633,-0.2584,-0.2584,-0.2584,0,0,0,0,0,-0.222,-0.2222,-0.2223,-0.2226,-0.2253,-0.2282,-0.2288,-0.23,-0.2292,-0.2302,-0.2351,-0.2355,-0.2494,-0.2475,-0.2491,-0.2489,-0.2627,-0.263,-0.2633,-0.2584,-0.2584,-0.2584,0,0,0,0,0,0,-0.2209,-0.2224,-0.2225,-0.2231,-0.2253,-0.2283,-0.2291,-0.2297,-0.2341,-0.2343,-0.2386,-0.2402,-0.2468,-0.2494,-0.2472,-0.2551,-0.2556,-0.2563,-0.2513,-0.2514,-0.2514,-0.2493,-0.2473,0,0,0,0,0,-0.2204,-0.2203,-0.223,-0.2232,-0.2243,-0.2265,-0.2276,-0.2288,-0.2327,-0.2342,-0.2379,-0.243,-0.2496,-0.2515,-0.2581,-0.2622,-0.2619,-0.263,-0.263,-0.263,-0.2626,-0.2617,-0.2614,-0.2645,-0.2645,-0.2645,0,0,-0.2195,-0.2205,-0.2203,-0.2228,-0.2244,-0.2272,-0.227,-0.2289,-0.231,-0.2353,-0.2393,-0.2446,-0.2516,-0.2571,-0.2598,-0.2585,-0.2622,-0.2634,-0.2633,-0.2629,-0.262,-0.2616,-0.2613,-0.2647,-0.2647,-0.2646,0,0,-0.2189,-0.2192,-0.2196,-0.222,-0.2247,-0.2268,-0.2271,-0.2303,-0.2314,-0.2366,-0.2408,-0.2453,-0.2536,-0.2575,-0.261,-0.2652,-0.264,-0.2669,-0.2631,-0.2622,-0.2618,-0.2615,-0.2601,-0.2597,-0.2647,-0.2647,-0.2647,0,-0.2182,-0.2192,-0.2203,-0.2227,-0.2247,-0.2265,-0.229,-0.2313,-0.2361,-0.2376,-0.2375,-0.2486,-0.2536,-0.26,-0.2613,-0.2647,-0.2639,-0.2617,-0.2617,-0.2613,-0.2611,-0.2598,-0.2593,-0.2645,-0.2645,-0.2646,-0.2646,0,-0.2183,-0.2203,-0.221,-0.2243,-0.2268,-0.2292,-0.2328,-0.2348,-0.2357,-0.2376,-0.2429,-0.2487,-0.2543,-0.2562,-0.2602,-0.2616,-0.2616,-0.2629,-0.2601,-0.2603,-0.2591,-0.2587,-0.2642,-0.2643,-0.2644,-0.2644,0,0,-0.2137,-0.22,-0.2201,-0.2228,-0.2281,-0.2301,-0.234,-0.2378,-0.2397,-0.2417,-0.2435,-0.2514,-0.2515,-0.2556,-0.2592,-0.2573,-0.2546,-0.2581,-0.2581,-0.2541,-0.2515,-0.2479,-0.2472,-0.2547,-0.2546,-0.2546,-0.251,0,-0.2136,-0.2182,-0.2214,-0.226,-0.2291,-0.2332,-0.2369,-0.2404,-0.2427,-0.2451,-0.247,-0.2516,-0.2521,-0.2544,-0.2525,-0.257,-0.2536,-0.2554,-0.2543,-0.2542,-0.2488,-0.2467,-0.235,-0.2306,-0.2507,-0.2506,-0.2506,0,-0.2118,-0.2158,-0.2204,-0.2279,-0.2294,-0.2325,-0.2379,-0.2414,-0.2456,-0.2473,-0.2487,-0.2512,-0.2524,-0.2515,-0.2513,-0.2522,-0.2509,-0.251,-0.2508,-0.2488,-0.25,-0.2342,-0.2292,-0.2263,-0.25,-0.2501,-0.2501,0,-0.2068,-0.2144,-0.218,-0.2206,-0.2295,-0.2318,-0.2356,-0.2409,-0.2439,-0.2476,-0.2494,-0.2507,-0.2521,-0.2499,-0.2503,-0.2505,-0.2483,-0.249,-0.2435,-0.2433,-0.2339,-0.233,-0.2236,-0.2455,-0.2455,-0.2455,-0.2455,0,-0.2048,-0.2074,-0.2159,-0.2182,-0.2222,-0.2289,-0.2328,-0.237,-0.2427,-0.2452,-0.249,-0.2504,-0.2513,-0.251,-0.2495,-0.2452,-0.2471,-0.2419,-0.2416,-0.2321,-0.2311,-0.2289,-0.2311,-0.2454,-0.2454,-0.2454,-0.2455,0,-0.1981,-0.2041,-0.2086,-0.2176,-0.2201,-0.2221,-0.2304,-0.233,-0.2397,-0.2429,-0.2439,-0.2497,-0.2493,-0.2495,-0.2478,-0.2444,-0.2364,-0.239,-0.2278,-0.2262,-0.2175,-0.2201,-0.2127,-0.2069,-0.2311,-0.231,-0.2309,0,-0.195,-0.1968,-0.2056,-0.2075,-0.2113,-0.2162,-0.2194,-0.2289,-0.2321,-0.2414,-0.2418,-0.2451,-0.2451,-0.2424,-0.2374,-0.2324,-0.2311,-0.2187,-0.2168,-0.2139,-0.2166,-0.2182,-0.2141,-0.2024,-0.202,-0.2018,-0.2016,0,-0.1883,-0.1912,-0.1948,-0.1992,-0.2027,-0.2073,-0.2128,-0.2156,-0.2259,-0.2297,-0.234,-0.2355,-0.2356,-0.2265,-0.2221,-0.2171,-0.212,-0.2131,-0.2119,-0.1942,-0.1935,-0.1888,-0.2091,-0.1992,-0.1994,-0.1996,-0.1997,-0.1998,-0.1811,-0.1814,-0.1855,-0.1886,-0.1924,-0.1951,-0.1945,-0.202,-0.2056,-0.2086,-0.2186,-0.2174,-0.2148,-0.2073,-0.2029,-0.1899,-0.1967,-0.1824,-0.186,-0.1882,-0.1811,-0.1966,-0.1861,-0.1862,-0.1864,-0.1865,-0.1866,0,-0.1709,-0.1722,-0.1745,-0.1772,-0.176,-0.1826,-0.1868,-0.1842,-0.1835,-0.1911,-0.1928,-0.1926,-0.1831,-0.1817,-0.1719,-0.1642,-0.1597,-0.1602,-0.1581,-0.1552,-0.1682,-0.1653,-0.1475,-0.1475,-0.1475,-0.1475,-0.1475,-0.1476,-0.1654,-0.1632,-0.165,-0.1593,-0.1603,-0.1544,-0.1537,-0.1527,-0.1554,-0.155,-0.1584,-0.1659,-0.1664,-0.1714,-0.1583,-0.15,-0.1462,-0.1414,-0.1463,-0.1547,-0.157,-0.1592,-0.1567,-0.1374,-0.1374,-0.1246,-0.1245,-0.1245]},{"header":{"parameterUnit":"m.s-1","parameterCategory":2,"la1":30.2991,"la2":30.254,"lo1":-89.0895,"lo2":-89.0444,"dy":0.0017,"dx":0.0017,"nx":28,"ny":28,"refTime":"2025-08-30T09:00:00:Z","depth":"0","parameterNumber":3,"parameterNumberName":"V-component_of_CURRENTS"},"data":[0,0,0,0,0,0,0,0,0,0,0,0,0,0,0,0,0,0,0,0,0,0,0,0,0,0,0,0,0,0,0,0,0,0,0,0,0,0,0,0,0,0,0,0,0,0,0,0,0,0,0,0,0,0,0,0,0,0,-0.0251,-0.0251,0,-0.0172,-0.0171,-0.0169,-0.0108,-0.0108,-0.0108,-0.0107,0.0013,0.0016,0.0018,0,0,0,0,0,0,0,0,0,0,0,0,0,-0.0319,-0.0318,-0.0251,-0.0251,-0.025,-0.0172,-0.017,-0.0169,-0.0109,-0.0108,-0.0108,-0.0107,0.0012,0.0015,0.0019,0,0,0,0,0,0,0,0,0,0,0,0,0,-0.0268,-0.0318,-0.0252,-0.0212,-0.0207,-0.0172,-0.017,-0.0169,-0.0109,-0.0108,-0.0107,-0.0107,0.0011,0.0015,0.0019,0.0033,0,0,0.0032,0.0034,0,0,0,0,0,0,0,0,-0.0271,-0.0265,-0.0218,-0.0214,-0.0209,-0.0151,-0.015,-0.01,-0.0109,-0.0144,-0.0107,-0.0107,-0.004,-0.0032,-0.0016,0.0039,0.0044,0.0032,0.0035,0.0037,0.0038,0,0,0,0,0,0,0,-0.0275,-0.0268,-0.0218,-0.0217,-0.0212,-0.0187,-0.0179,-0.014,-0.0094,-0.0141,-0.0137,-0.0131,-0.0037,-0.002,-0.0012,0.0046,0.0032,0.0036,0.0039,0.004,0.0152,0.0152,0,0,0,0,0,0,-0.0291,-0.0272,-0.022,-0.0216,-0.0242,-0.0186,-0.0177,-0.0169,-0.0095,-0.0084,-0.0132,-0.0129,-0.0027,-0.0017,-0.0008,0.0012,0.0037,0.0041,0.0043,0.0152,0.0152,0.0153,0,0,0,0,0,0,-0.0292,-0.0287,-0.0224,-0.0244,-0.0234,-0.0186,-0.0177,-0.0168,-0.0151,-0.0089,-0.0077,-0.0125,-0.0027,-0.0014,0.0032,0.0018,0.0043,0.0047,0.0151,0.0152,0.0152,0.0054,0,0,0,0,0,0,-0.0295,-0.0288,-0.0287,-0.0245,-0.0234,-0.0212,-0.0177,-0.0167,-0.0149,-0.0144,-0.0079,-0.0067,-0.0025,0.0026,0.0036,0.0024,0.005,0.0151,0.0151,0.0152,0.0056,0.0051,0.0046,0,0,0,0,0,-0.0297,-0.03,-0.0288,-0.0282,-0.0235,-0.0213,-0.0205,-0.0168,-0.015,-0.0149,-0.0095,-0.0069,0.0039,0.0029,0.0042,0.003,0.015,0.0151,0.0152,0.0059,0.0052,0.0046,0,0,0,0,0,0,-0.0331,-0.0293,-0.0279,-0.027,-0.0249,-0.0204,-0.0198,-0.0174,-0.0132,-0.0124,-0.0064,-0.0048,-0.001,0.0028,0.0017,0.0069,0.0099,0.0102,0.0023,0.0018,0.0012,-0.0005,0.0053,0,0,0,0,0,-0.034,-0.033,-0.0296,-0.0291,-0.0283,-0.0243,-0.0229,-0.0206,-0.0165,-0.0146,-0.0101,-0.0046,0.0003,0.0024,0.0075,0.0096,0.0134,0.01,0.0095,0.009,0.0087,0.0129,0.0126,0.0156,0.0156,0.0156,0,0,-0.0352,-0.0331,-0.0325,-0.0298,-0.0276,-0.0274,-0.0232,-0.0219,-0.0214,-0.0139,-0.0116,-0.006,0.0009,0.004,0.0059,0.0067,0.0103,0.0091,0.0086,0.0086,0.013,0.0126,0.0124,0.0156,0.0156,0.0156,0,0,-0.0379,-0.0354,-0.0359,-0.0347,-0.0324,-0.0299,-0.03,-0.0261,-0.0239,-0.0211,-0.0151,-0.0104,-0.004,0.0006,0.0039,0.0037,0.008,0.0051,0.0001,0.004,0.0037,0.0035,0.0075,0.0078,0.004,0.004,0.004,0,-0.04,-0.0398,-0.0359,-0.0367,-0.0364,-0.0317,-0.0331,-0.0303,-0.0254,-0.0237,-0.0216,-0.0108,-0.0056,-0.0009,-0.001,0.0022,0.0052,0.0011,0.003,0.0029,0.0029,0.0071,0.0074,0.0035,0.0036,0.0036,0.0037,0,-0.0429,-0.0435,-0.0439,-0.0431,-0.0422,-0.0426,-0.0391,-0.0375,-0.0343,-0.031,-0.0258,-0.0181,-0.0118,-0.0097,-0.0055,-0.003,-0.0005,0.002,0.0035,0.0019,0.0065,0.0071,0.0029,0.003,0.0032,0.0033,0,0,-0.0461,-0.0462,-0.0463,-0.0481,-0.0459,-0.0459,-0.045,-0.0426,-0.0419,-0.0365,-0.0345,-0.0262,-0.0216,-0.0175,-0.0115,-0.0085,-0.0063,-0.0046,-0.0042,-0.0025,0.0022,0.0063,0.0074,-0.0043,-0.0042,-0.0042,0.0052,0,-0.0501,-0.054,-0.0519,-0.0557,-0.0577,-0.0538,-0.0535,-0.0505,-0.0464,-0.0432,-0.0349,-0.03,-0.0247,-0.0217,-0.0179,-0.0079,-0.0051,-0.009,0.0053,0.0057,0.008,0.0081,0.0108,0.0196,0.0058,0.0059,0.006,0,-0.0536,-0.0561,-0.0607,-0.063,-0.0632,-0.0641,-0.0627,-0.0616,-0.0552,-0.0519,-0.0457,-0.0384,-0.031,-0.0269,-0.0132,-0.0162,-0.0084,-0.0015,-0.0009,0.0068,0.0109,0.0194,0.0212,0.035,0.007,0.0069,0.0068,0,-0.0586,-0.062,-0.0663,-0.0672,-0.0684,-0.0692,-0.0687,-0.0643,-0.0636,-0.0567,-0.0548,-0.0445,-0.0386,-0.0279,-0.013,-0.0134,0.0018,0.0035,0.0145,0.0149,0.0222,0.0232,0.0376,0.0116,0.0116,0.0116,0.0115,0,-0.0639,-0.0673,-0.0692,-0.0721,-0.0768,-0.0747,-0.0771,-0.0747,-0.0707,-0.0698,-0.0595,-0.0559,-0.0389,-0.0275,-0.015,0.0022,0.0007,0.0141,0.0177,0.019,0.0195,0.036,0.0409,0.0119,0.0118,0.0118,0.0117,0,-0.069,-0.07,-0.0758,-0.0787,-0.0797,-0.0828,-0.0839,-0.085,-0.0801,-0.0783,-0.0763,-0.0638,-0.0481,-0.0305,-0.0113,0.0002,0.0246,0.0219,0.0225,0.026,0.0485,0.0527,0.0704,0.0774,0.0355,0.0356,0.0358,0,-0.0721,-0.0756,-0.0814,-0.0851,-0.0869,-0.0905,-0.0928,-0.0901,-0.0908,-0.0829,-0.0826,-0.0673,-0.0552,-0.0247,-0.0014,0.0224,0.032,0.0377,0.0378,0.0507,0.0581,0.0608,0.0655,0.0438,0.044,0.0441,0.0442,0,-0.0787,-0.0802,-0.0849,-0.0929,-0.0972,-0.1016,-0.1042,-0.1062,-0.1016,-0.0979,-0.0898,-0.0789,-0.0482,-0.0191,0.0124,0.0267,0.0478,0.0416,0.0555,0.0662,0.0698,0.0778,0.0365,0.0456,0.0455,0.0454,0.0453,0.0452,-0.0825,-0.0875,-0.0934,-0.1006,-0.1058,-0.1111,-0.1138,-0.1143,-0.1136,-0.1052,-0.0951,-0.0748,-0.0333,0.0124,0.0287,0.0646,0.0607,0.0754,0.0794,0.0812,0.0878,0.0492,0.0619,0.0618,0.0618,0.0618,0.0617,0,-0.0874,-0.0929,-0.1007,-0.1087,-0.115,-0.1157,-0.12,-0.1194,-0.1172,-0.1052,-0.0929,-0.0472,-0.0059,0.0326,0.0824,0.1016,0.105,0.111,0.1161,0.1191,0.0866,0.0869,0.105,0.105,0.1049,0.1049,0.1049,0.1049,-0.0902,-0.099,-0.1033,-0.1146,-0.1193,-0.1242,-0.1257,-0.1222,-0.1135,-0.0898,-0.064,-0.0442,0.0112,0.0883,0.1334,0.1375,0.152,0.1511,0.1587,0.137,0.134,0.1311,0.1328,0.1602,0.1603,0.1901,0.1904,0.1906]}],[{"header":{"parameterUnit":"m.s-1","parameterCategory":2,"la1":30.2991,"la2":30.254,"lo1":-89.0895,"lo2":-89.0444,"dy":0.0017,"dx":0.0017,"nx":28,"ny":28,"refTime":"2025-08-30T09:00:00:Z","depth":"2","parameterNumber":2,"parameterNumberName":"U-component_of_CURRENTS"},"data":[0,0,0,0,0,0,0,0,0,0,0,0,0,0,0,0,0,0,0,0,0,0,0,0,0,0,0,0,0,0,0,0,0,0,0,0,0,0,0,0,0,0,0,0,0,0,0,0,0,0,0,0,0,0,0,0,0,0,-0.2027,-0.2027,0,-0.2061,-0.2061,-0.2062,-0.2057,-0.2056,-0.2056,-0.2055,-0.217,-0.2173,-0.2177,0,0,0,0,0,0,0,0,0,0,0,0,0,-0.1976,-0.1977,-0.2027,-0.2027,-0.2028,-0.2061,-0.2061,-0.2062,-0.2057,-0.2056,-0.2056,-0.2055,-0.2169,-0.2173,-0.2177,0,0,0,0,0,0,0,0,0,0,0,0,0,-0.2002,-0.1977,-0.2026,-0.203,-0.203,-0.2061,-0.2061,-0.2062,-0.2057,-0.2056,-0.2055,-0.2055,-0.2167,-0.2172,-0.2177,-0.2225,0,0,-0.2194,-0.2196,0,0,0,0,0,0,0,0,-0.2001,-0.2004,-0.2029,-0.203,-0.203,-0.2054,-0.2085,-0.2121,-0.2057,-0.2046,-0.2055,-0.2054,-0.214,-0.2147,-0.2153,-0.223,-0.2235,-0.2194,-0.2197,-0.2199,-0.2201,0,0,0,0,0,0,0,-0.1999,-0.2003,-0.2039,-0.2029,-0.203,-0.2036,-0.2039,-0.2092,-0.2098,-0.2047,-0.2047,-0.2052,-0.214,-0.2148,-0.2156,-0.2237,-0.2194,-0.2199,-0.2202,-0.2204,-0.2349,-0.2349,0,0,0,0,0,0,-0.1996,-0.2001,-0.2038,-0.204,-0.2014,-0.2038,-0.2041,-0.2047,-0.2095,-0.2101,-0.2053,-0.2052,-0.2139,-0.215,-0.216,-0.221,-0.2199,-0.2204,-0.2207,-0.2348,-0.2349,-0.235,0,0,0,0,0,0,-0.1995,-0.1999,-0.2037,-0.2022,-0.2027,-0.2039,-0.2046,-0.2048,-0.2053,-0.2099,-0.2106,-0.2056,-0.2139,-0.2153,-0.2202,-0.2215,-0.2207,-0.2212,-0.2347,-0.2348,-0.2349,-0.2317,0,0,0,0,0,0,-0.1994,-0.1999,-0.2001,-0.2022,-0.2028,-0.2058,-0.2047,-0.2049,-0.2058,-0.2057,-0.2105,-0.2114,-0.2139,-0.2194,-0.2207,-0.2222,-0.2216,-0.2346,-0.2348,-0.2349,-0.2317,-0.2316,-0.2316,0,0,0,0,0,-0.1992,-0.1998,-0.2001,-0.2006,-0.2032,-0.2058,-0.2062,-0.2067,-0.2059,-0.2068,-0.2093,-0.2113,-0.2211,-0.2199,-0.2214,-0.2231,-0.2346,-0.2347,-0.2349,-0.2317,-0.2317,-0.2316,0,0,0,0,0,0,-0.1975,-0.1999,-0.2003,-0.2015,-0.2037,-0.2058,-0.2063,-0.2069,-0.2094,-0.2093,-0.2127,-0.2139,-0.2188,-0.2217,-0.2202,-0.2276,-0.2281,-0.2286,-0.2251,-0.2252,-0.2251,-0.2244,-0.222,0,0,0,0,0,-0.1974,-0.1982,-0.2011,-0.2018,-0.203,-0.2047,-0.2057,-0.2065,-0.2089,-0.2098,-0.2129,-0.2166,-0.2209,-0.2233,-0.2277,-0.2323,-0.2324,-0.2342,-0.2342,-0.2341,-0.2347,-0.2343,-0.2342,-0.2355,-0.2355,-0.2355,0,0,-0.1967,-0.1982,-0.1986,-0.2015,-0.2028,-0.2053,-0.205,-0.2069,-0.2088,-0.2111,-0.2144,-0.2173,-0.2222,-0.2266,-0.229,-0.2289,-0.2338,-0.2343,-0.2342,-0.2348,-0.2345,-0.2343,-0.2342,-0.2356,-0.2356,-0.2355,0,0,-0.1963,-0.1974,-0.1984,-0.2007,-0.2035,-0.2053,-0.2059,-0.2086,-0.2096,-0.2136,-0.2153,-0.2182,-0.2251,-0.2277,-0.2302,-0.233,-0.2338,-0.2349,-0.2341,-0.2337,-0.2335,-0.2334,-0.2323,-0.2321,-0.2344,-0.2344,-0.2344,0,-0.1955,-0.1974,-0.1991,-0.2013,-0.2033,-0.2053,-0.2077,-0.2097,-0.2135,-0.2148,-0.2145,-0.2219,-0.2255,-0.2302,-0.2306,-0.2329,-0.2324,-0.2334,-0.2333,-0.2332,-0.2331,-0.2321,-0.2319,-0.2343,-0.2343,-0.2343,-0.2343,0,-0.1962,-0.1984,-0.1992,-0.2027,-0.2052,-0.2075,-0.2111,-0.2133,-0.2145,-0.2162,-0.2202,-0.2235,-0.2275,-0.2289,-0.231,-0.2329,-0.2326,-0.2332,-0.2327,-0.2328,-0.2317,-0.2316,-0.2341,-0.2341,-0.2342,-0.2342,0,0,-0.1922,-0.1986,-0.1987,-0.2012,-0.2063,-0.2084,-0.2122,-0.2162,-0.2182,-0.2204,-0.2225,-0.2275,-0.2275,-0.2303,-0.2323,-0.2319,-0.2302,-0.232,-0.232,-0.2296,-0.2284,-0.2234,-0.2228,-0.23,-0.23,-0.23,-0.2275,0,-0.1922,-0.1965,-0.1999,-0.2042,-0.2069,-0.2111,-0.2148,-0.2184,-0.2211,-0.2237,-0.2253,-0.2286,-0.2287,-0.2301,-0.2295,-0.2315,-0.2299,-0.2308,-0.23,-0.23,-0.2244,-0.2225,-0.205,-0.2009,-0.2273,-0.2273,-0.2273,0,-0.1909,-0.1946,-0.1989,-0.2058,-0.2073,-0.2103,-0.2158,-0.2194,-0.224,-0.2259,-0.2277,-0.2295,-0.231,-0.23,-0.2301,-0.2304,-0.2291,-0.2288,-0.2287,-0.2252,-0.2247,-0.2056,-0.1996,-0.2271,-0.2271,-0.2271,-0.2271,0,-0.1863,-0.1933,-0.1967,-0.1992,-0.2074,-0.2098,-0.2135,-0.2191,-0.2222,-0.2264,-0.2284,-0.2302,-0.2314,-0.23,-0.2297,-0.2297,-0.2284,-0.2284,-0.222,-0.2217,-0.2074,-0.2058,-0.2264,-0.2265,-0.2265,-0.2265,-0.2265,0,-0.1844,-0.1869,-0.1949,-0.197,-0.2009,-0.2071,-0.2112,-0.2154,-0.2212,-0.2239,-0.2282,-0.2297,-0.2312,-0.2311,-0.2296,-0.2251,-0.2278,-0.2213,-0.2204,-0.2058,-0.2042,-0.2282,-0.2284,-0.2264,-0.2264,-0.2264,-0.2264,0,-0.1784,-0.184,-0.1882,-0.1966,-0.1989,-0.2011,-0.209,-0.2117,-0.2184,-0.2218,-0.2231,-0.229,-0.2287,-0.2294,-0.228,-0.2246,-0.2215,-0.219,-0.2017,-0.1988,-0.215,-0.2151,-0.211,-0.2108,-0.2106,-0.2105,-0.2104,0,-0.1757,-0.1774,-0.1857,-0.1875,-0.191,-0.1958,-0.1988,-0.2079,-0.211,-0.2201,-0.2205,-0.224,-0.2233,-0.2206,-0.2155,-0.2105,-0.2168,-0.1918,-0.1887,-0.2137,-0.2133,-0.2137,-0.214,-0.1681,-0.1676,-0.1672,-0.1669,0,-0.1696,-0.1725,-0.1759,-0.1799,-0.1833,-0.1876,-0.1927,-0.1951,-0.2049,-0.2083,-0.2117,-0.2124,-0.2118,-0.1992,-0.1948,-0.1894,-0.1914,-0.184,-0.213,-0.1758,-0.1733,-0.1729,-0.1746,-0.1636,-0.1639,-0.1642,-0.1644,-0.1645,-0.1632,-0.1635,-0.1675,-0.1704,-0.1741,-0.1762,-0.1754,-0.1817,-0.1844,-0.1862,-0.1953,-0.1907,-0.1899,-0.1744,-0.166,-0.1595,-0.1729,-0.1636,-0.1647,-0.1662,-0.1628,-0.1602,-0.1474,-0.1476,-0.1478,-0.148,-0.1481,0,-0.1537,-0.1551,-0.1574,-0.16,-0.1591,-0.1652,-0.1683,-0.1651,-0.163,-0.1674,-0.1677,-0.1518,-0.1437,-0.1441,-0.1295,-0.1271,-0.1248,-0.1207,-0.1172,-0.1205,-0.1235,-0.1179,-0.0906,-0.0904,-0.0903,-0.0901,0,0,-0.1486,-0.1467,-0.1483,-0.1435,-0.1448,-0.1393,-0.1381,-0.1354,-0.1354,-0.1297,-0.1271,-0.1364,-0.1403,-0.1158,-0.1096,-0.0981,-0.1081,-0.0927,-0.1387,-0.1378,-0.1406,-0.1479,-0.143,0,0,0,0,0]},{"header":{"parameterUnit":"m.s-1","parameterCategory":2,"la1":30.2991,"la2":30.254,"lo1":-89.0895,"lo2":-89.0444,"dy":0.0017,"dx":0.0017,"nx":28,"ny":28,"refTime":"2025-08-30T09:00:00:Z","depth":"2","parameterNumber":3,"parameterNumberName":"V-component_of_CURRENTS"},"data":[0,0,0,0,0,0,0,0,0,0,0,0,0,0,0,0,0,0,0,0,0,0,0,0,0,0,0,0,0,0,0,0,0,0,0,0,0,0,0,0,0,0,0,0,0,0,0,0,0,0,0,0,0,0,0,0,0,0,-0.0151,-0.015,0,-0.0078,-0.0077,-0.0076,-0.0018,-0.0018,-0.0017,-0.0017,0.0122,0.0125,0.0128,0,0,0,0,0,0,0,0,0,0,0,0,0,-0.0205,-0.0204,-0.0151,-0.015,-0.015,-0.0078,-0.0077,-0.0076,-0.0018,-0.0018,-0.0017,-0.0017,0.0121,0.0125,0.0129,0,0,0,0,0,0,0,0,0,0,0,0,0,-0.016,-0.0204,-0.0151,-0.0114,-0.011,-0.0079,-0.0077,-0.0076,-0.0018,-0.0018,-0.0017,-0.0017,0.012,0.0124,0.0129,0.0149,0,0,0.0145,0.0147,0,0,0,0,0,0,0,0,-0.0162,-0.0157,-0.012,-0.0116,-0.0112,-0.0058,-0.0045,0.0002,-0.0018,-0.0051,-0.0017,-0.0016,0.0066,0.0075,0.009,0.0155,0.0161,0.0145,0.0148,0.015,0.0152,0,0,0,0,0,0,0,-0.0166,-0.016,-0.012,-0.0119,-0.0114,-0.0089,-0.0082,-0.0036,0.0006,-0.0048,-0.0044,-0.004,0.0069,0.0085,0.0094,0.0163,0.0145,0.0149,0.0152,0.0154,0.0274,0.0274,0,0,0,0,0,0,-0.0181,-0.0163,-0.0122,-0.0118,-0.0139,-0.0088,-0.008,-0.0074,0.0005,0.0016,-0.004,-0.0037,0.0076,0.0088,0.0099,0.012,0.015,0.0155,0.0158,0.0273,0.0274,0.0274,0,0,0,0,0,0,-0.0183,-0.0178,-0.0125,-0.0141,-0.0132,-0.0089,-0.0082,-0.0073,-0.0058,0.0009,0.0023,-0.0034,0.0077,0.0092,0.0137,0.0126,0.0157,0.0162,0.0273,0.0274,0.0274,0.0167,0,0,0,0,0,0,-0.0184,-0.0179,-0.018,-0.0142,-0.0132,-0.0116,-0.0082,-0.0072,-0.0057,-0.0052,0.0019,0.0033,0.0079,0.0129,0.0142,0.0134,0.0166,0.0273,0.0273,0.0274,0.017,0.0164,0.0158,0,0,0,0,0,-0.0187,-0.0191,-0.0181,-0.0176,-0.0135,-0.0117,-0.011,-0.0075,-0.0058,-0.0057,-0.0006,0.003,0.0141,0.0133,0.0148,0.0141,0.0273,0.0273,0.0274,0.0173,0.0165,0.0158,0,0,0,0,0,0,-0.0216,-0.0185,-0.0173,-0.0168,-0.015,-0.0108,-0.0103,-0.0082,-0.0042,-0.0034,0.0031,0.0048,0.0084,0.0131,0.0121,0.0179,0.0214,0.0217,0.0132,0.0125,0.0119,0.0106,0.017,0,0,0,0,0,-0.0225,-0.0219,-0.019,-0.0188,-0.018,-0.0144,-0.0132,-0.0112,-0.0073,-0.0055,-0.0007,0.005,0.0097,0.0124,0.0174,0.0203,0.0246,0.0212,0.0205,0.02,0.0201,0.0247,0.0245,0.0275,0.0275,0.0275,0,0,-0.0236,-0.0219,-0.0216,-0.0194,-0.0174,-0.0173,-0.0135,-0.0123,-0.012,-0.0045,-0.0022,0.0029,0.0101,0.0133,0.0154,0.017,0.0213,0.02,0.0194,0.0199,0.0247,0.0244,0.0241,0.0275,0.0275,0.0275,0,0,-0.0261,-0.0242,-0.0248,-0.0238,-0.0218,-0.0196,-0.0198,-0.0163,-0.0144,-0.0118,-0.0063,-0.002,0.005,0.0096,0.013,0.0123,0.0178,0.0139,0.0096,0.0139,0.0137,0.0135,0.0174,0.0177,0.0136,0.0135,0.0135,0,-0.0279,-0.0281,-0.0249,-0.0256,-0.0254,-0.0213,-0.0225,-0.0201,-0.0157,-0.0141,-0.0123,-0.002,0.0033,0.008,0.0075,0.0107,0.014,0.0111,0.0128,0.0128,0.0128,0.0169,0.0173,0.013,0.0131,0.0131,0.0132,0,-0.0308,-0.0314,-0.0318,-0.0313,-0.0306,-0.0311,-0.028,-0.0267,-0.024,-0.0209,-0.0162,-0.0091,-0.0029,-0.001,0.0029,0.0058,0.0083,0.011,0.0138,0.0118,0.0163,0.0169,0.0123,0.0125,0.0126,0.0128,0,0,-0.0337,-0.0339,-0.0341,-0.0357,-0.0339,-0.0339,-0.0332,-0.0311,-0.0303,-0.0257,-0.0237,-0.0164,-0.0122,-0.008,-0.0024,0.0011,0.0031,0.005,0.0055,0.0073,0.0122,0.0151,0.0162,0.0055,0.0055,0.0056,0.0149,0,-0.0372,-0.0407,-0.0391,-0.0425,-0.0443,-0.0409,-0.0407,-0.0381,-0.0345,-0.0314,-0.0238,-0.0193,-0.0149,-0.0121,-0.0081,0.0013,0.0045,0.0003,0.0156,0.016,0.0175,0.0169,0.0147,0.0229,0.0156,0.0157,0.0158,0,-0.0405,-0.0427,-0.0469,-0.0488,-0.0491,-0.05,-0.0487,-0.0478,-0.0419,-0.0389,-0.0332,-0.0265,-0.0194,-0.0159,-0.0025,-0.0056,0.002,0.0086,0.0092,0.0163,0.0201,0.0243,0.0244,0.0169,0.0168,0.0167,0.0166,0,-0.0449,-0.048,-0.0518,-0.0527,-0.0537,-0.0545,-0.0541,-0.0501,-0.0494,-0.043,-0.041,-0.0313,-0.0258,-0.0154,-0.0017,-0.0021,0.0128,0.0146,0.0243,0.0246,0.0282,0.0287,0.0229,0.0229,0.0228,0.0228,0.0228,0,-0.0496,-0.0527,-0.0545,-0.0571,-0.0613,-0.0595,-0.0615,-0.0594,-0.0556,-0.0544,-0.0451,-0.0414,-0.0256,-0.0148,-0.0031,0.0129,0.0122,0.0238,0.0273,0.0244,0.0244,0.0241,0.0241,0.0232,0.0231,0.023,0.023,0,-0.0544,-0.0552,-0.0604,-0.063,-0.0639,-0.0668,-0.0678,-0.0686,-0.064,-0.0619,-0.0601,-0.0482,-0.0335,-0.0173,0.0012,0.0115,0.0263,0.0318,0.0271,0.0299,0.0353,0.0347,0.0436,0.0438,0.0439,0.0441,0.0442,0,-0.0572,-0.0603,-0.0656,-0.069,-0.0706,-0.074,-0.0759,-0.0734,-0.0736,-0.0658,-0.0651,-0.0507,-0.0393,-0.0111,0.0093,0.031,0.0307,0.0409,0.04,0.035,0.0375,0.0366,0.0358,0.0404,0.0405,0.0406,0.0406,0,-0.0632,-0.0646,-0.0689,-0.0762,-0.08,-0.0837,-0.0859,-0.0874,-0.0828,-0.0789,-0.0706,-0.0604,-0.033,-0.0088,0.0191,0.0313,0.0374,0.0428,0.04,0.0351,0.0326,0.0349,0.0341,0.0411,0.0411,0.041,0.041,0.041,-0.0668,-0.0715,-0.077,-0.0835,-0.088,-0.0921,-0.0943,-0.0941,-0.0927,-0.0843,-0.0748,-0.0565,-0.0334,0.007,0.0262,0.0444,0.0441,0.0493,0.0488,0.0484,0.0459,0.0438,0.0539,0.054,0.054,0.054,0.054,0,-0.0715,-0.0767,-0.0839,-0.0909,-0.0963,-0.0969,-0.0997,-0.0985,-0.0955,-0.0844,-0.0728,-0.0459,-0.0181,0.0059,0.0353,0.0526,0.0507,0.0549,0.0491,0.0485,0.0481,0.0453,0.0534,0.0534,0.0534,0.0535,0,0,-0.0741,-0.0824,-0.0864,-0.0963,-0.1005,-0.1046,-0.1055,-0.1009,-0.0926,-0.0802,-0.0657,-0.0462,-0.0167,0.0038,0.0251,0.0404,0.0398,0.0416,0.0405,0.0306,0.0299,0.0435,0.0386,0,0,0,0,0]}],[{"header":{"parameterUnit":"m.s-1","parameterCategory":2,"la1":30.2991,"la2":30.254,"lo1":-89.0895,"lo2":-89.0444,"dy":0.0017,"dx":0.0017,"nx":28,"ny":28,"refTime":"2025-08-30T09:00:00:Z","depth":"4","parameterNumber":2,"parameterNumberName":"U-component_of_CURRENTS"},"data":[0,0,0,0,0,0,0,0,0,0,0,0,0,0,0,0,0,0,0,0,0,0,0,0,0,0,0,0,0,0,0,0,0,0,0,0,0,0,0,0,0,0,0,0,0,0,0,0,0,0,0,0,0,0,0,0,0,0,-0.1469,-0.147,0,-0.1524,-0.1524,-0.1525,-0.1554,-0.1554,-0.1554,-0.1554,-0.1453,-0.145,-0.1447,0,0,0,0,0,0,0,0,0,0,0,0,0,-0.1381,-0.1382,-0.1469,-0.147,-0.1471,-0.1524,-0.1524,-0.1525,-0.1553,-0.1554,-0.1554,-0.1554,-0.1454,-0.1451,-0.1447,0,0,0,0,0,0,0,0,0,0,0,0,0,-0.1424,-0.1383,-0.1469,-0.1493,-0.1496,-0.1524,-0.1524,-0.1525,-0.1553,-0.1554,-0.1554,-0.1555,-0.1455,-0.1451,-0.1447,-0.1412,0,0,-0.1433,-0.1431,0,0,0,0,0,0,0,0,-0.1421,-0.1427,-0.1489,-0.1491,-0.1495,-0.1534,-0.1457,-0.148,-0.1553,-0.1529,-0.1554,-0.1555,-0.1467,-0.1462,-0.147,-0.1407,-0.1403,-0.1433,-0.143,-0.1428,-0.1427,0,0,0,0,0,0,0,-0.1418,-0.1424,-0.1488,-0.149,-0.1493,-0.1499,-0.1505,-0.1462,-0.1491,-0.1531,-0.1534,-0.1544,-0.1467,-0.1475,-0.1468,-0.1402,-0.1433,-0.1429,-0.1426,-0.1425,-0.1393,-0.1394,0,0,0,0,0,0,-0.1416,-0.1422,-0.1487,-0.149,-0.1461,-0.15,-0.1507,-0.1519,-0.1495,-0.1493,-0.1543,-0.1545,-0.1482,-0.1473,-0.1464,-0.1502,-0.1428,-0.1424,-0.1422,-0.1391,-0.1393,-0.1395,0,0,0,0,0,0,-0.1414,-0.1422,-0.1485,-0.1459,-0.1467,-0.1502,-0.1515,-0.152,-0.1552,-0.1506,-0.1501,-0.1572,-0.1482,-0.147,-0.1463,-0.1495,-0.1422,-0.1418,-0.1389,-0.1392,-0.1394,-0.1525,0,0,0,0,0,0,-0.1411,-0.142,-0.144,-0.1459,-0.1469,-0.1517,-0.1515,-0.1521,-0.1557,-0.156,-0.1528,-0.1518,-0.1481,-0.1471,-0.1459,-0.1487,-0.1415,-0.1387,-0.139,-0.1393,-0.1518,-0.1532,-0.1543,0,0,0,0,0,-0.1408,-0.1426,-0.144,-0.1449,-0.1491,-0.1519,-0.1525,-0.1548,-0.1558,-0.1577,-0.1568,-0.1521,-0.1483,-0.1469,-0.1455,-0.1482,-0.1385,-0.1389,-0.1393,-0.1513,-0.1529,-0.1543,0,0,0,0,0,0,-0.1394,-0.1432,-0.1447,-0.1476,-0.1505,-0.1525,-0.1546,-0.1563,-0.1575,-0.1579,-0.1538,-0.1528,-0.1534,-0.149,-0.1475,-0.1485,-0.1428,-0.1429,-0.1524,-0.1538,-0.155,-0.1542,-0.1411,0,0,0,0,0,-0.1402,-0.143,-0.1461,-0.1487,-0.1502,-0.153,-0.1549,-0.1567,-0.1576,-0.1585,-0.1571,-0.1552,-0.1536,-0.1525,-0.1499,-0.1496,-0.1461,-0.1507,-0.152,-0.1531,-0.1516,-0.1519,-0.153,-0.1408,-0.1408,-0.1408,0,0,-0.1407,-0.1429,-0.1448,-0.1487,-0.1509,-0.1537,-0.1542,-0.1578,-0.1608,-0.1565,-0.1602,-0.159,-0.1546,-0.1558,-0.1556,-0.1526,-0.1552,-0.1536,-0.1545,-0.1524,-0.1524,-0.1536,-0.1547,-0.1411,-0.141,-0.141,0,0,-0.1415,-0.1448,-0.1471,-0.1498,-0.1539,-0.1557,-0.1574,-0.1613,-0.164,-0.1669,-0.1656,-0.1673,-0.1641,-0.1637,-0.1622,-0.1681,-0.1619,-0.1674,-0.1726,-0.1731,-0.1741,-0.1749,-0.174,-0.1746,-0.168,-0.168,-0.168,0,-0.1418,-0.1452,-0.1482,-0.1507,-0.1534,-0.1569,-0.1598,-0.1629,-0.1667,-0.1686,-0.1692,-0.17,-0.1679,-0.1691,-0.1727,-0.1709,-0.1692,-0.1676,-0.1748,-0.1755,-0.1761,-0.1749,-0.1754,-0.1687,-0.1686,-0.1685,-0.1685,0,-0.1437,-0.1474,-0.1488,-0.1535,-0.1567,-0.1599,-0.1643,-0.1685,-0.1722,-0.1748,-0.1789,-0.1788,-0.1786,-0.1802,-0.1781,-0.182,-0.179,-0.1767,-0.1712,-0.1781,-0.1764,-0.1767,-0.1697,-0.1694,-0.1692,-0.169,0,0,-0.1413,-0.1488,-0.1496,-0.1526,-0.1587,-0.1612,-0.1668,-0.1721,-0.1758,-0.1808,-0.1849,-0.1874,-0.1884,-0.1868,-0.1865,-0.1884,-0.1939,-0.1852,-0.185,-0.1845,-0.1942,-0.1812,-0.1801,-0.1933,-0.1934,-0.1935,-0.192,0,-0.142,-0.147,-0.151,-0.1567,-0.1596,-0.165,-0.1698,-0.1752,-0.1799,-0.1848,-0.1875,-0.1904,-0.1905,-0.192,-0.1944,-0.1931,-0.1949,-0.1943,-0.1871,-0.1868,-0.1745,-0.1801,-0.1937,-0.1922,-0.1922,-0.1923,-0.1923,0,-0.1416,-0.1455,-0.1511,-0.1586,-0.1605,-0.1648,-0.1727,-0.1774,-0.1842,-0.1879,-0.192,-0.1934,-0.1975,-0.1968,-0.1985,-0.1981,-0.197,-0.1964,-0.1963,-0.1787,-0.1742,-0.183,-0.1927,-0.1927,-0.1926,-0.1926,-0.1926,0,-0.1372,-0.1451,-0.1499,-0.1526,-0.1617,-0.1658,-0.1707,-0.1783,-0.1825,-0.1897,-0.1927,-0.1969,-0.199,-0.1995,-0.1991,-0.1992,-0.1994,-0.1986,-0.1857,-0.1847,-0.1911,-0.1901,-0.1993,-0.1993,-0.1993,-0.1993,-0.1993,0,-0.1347,-0.1388,-0.1488,-0.1513,-0.1572,-0.1642,-0.1707,-0.1762,-0.1836,-0.1869,-0.1937,-0.1954,-0.2001,-0.2006,-0.1997,-0.1925,-0.1996,-0.1859,-0.1833,-0.1969,-0.1966,-0.1913,-0.1904,-0.1992,-0.1992,-0.1992,-0.1993,0,-0.1286,-0.1356,-0.1415,-0.1519,-0.1553,-0.1594,-0.1697,-0.1733,-0.1817,-0.186,-0.1882,-0.195,-0.1948,-0.1972,-0.1972,-0.1912,-0.1871,-0.1828,-0.1968,-0.1951,-0.1721,-0.1719,-0.1676,-0.1671,-0.1667,-0.1664,-0.1661,0,-0.1257,-0.1283,-0.1402,-0.1436,-0.1487,-0.1561,-0.1604,-0.1707,-0.1737,-0.1834,-0.1832,-0.1874,-0.19,-0.1791,-0.1833,-0.1791,-0.1773,-0.1739,-0.1735,-0.1708,-0.1688,-0.1693,-0.1696,-0.1655,-0.1654,-0.1653,-0.1652,0,-0.1193,-0.1249,-0.1299,-0.1367,-0.1424,-0.148,-0.1546,-0.1556,-0.1657,-0.1753,-0.173,-0.1719,-0.171,-0.1697,-0.1674,-0.1648,-0.1754,-0.1697,-0.1705,-0.1701,-0.1682,-0.1667,-0.1675,-0.1638,-0.164,-0.1641,-0.1642,0,-0.1144,-0.1161,-0.1229,-0.1278,-0.1346,-0.1364,-0.142,-0.1444,-0.1486,-0.1592,-0.1576,-0.1622,-0.1688,-0.1621,-0.1602,-0.1562,-0.154,-0.1488,-0.1507,-0.1523,-0.1479,-0.1433,-0.1284,0,0,0,0,0,-0.1079,-0.1085,-0.1127,-0.1176,-0.1239,-0.1275,-0.1361,-0.1416,-0.1513,-0.1454,-0.1511,-0.1494,-0.1458,-0.1484,-0.1409,-0.1532,-0.1548,-0.1438,-0.1501,-0.156,-0.1576,-0.1538,0,0,0,0,0,0,-0.1036,-0.1069,-0.1089,-0.1074,-0.1085,-0.1138,-0.1186,-0.1258,-0.1233,-0.1335,-0.1321,-0.1398,-0.1386,-0.1475,-0.1377,-0.1384,-0.139,-0.1475,-0.1471,-0.1551,-0.1566,-0.1579,-0.1544,0,0,0,0,0]},{"header":{"parameterUnit":"m.s-1","parameterCategory":2,"la1":30.2991,"la2":30.254,"lo1":-89.0895,"lo2":-89.0444,"dy":0.0017,"dx":0.0017,"nx":28,"ny":28,"refTime":"2025-08-30T09:00:00:Z","depth":"4","parameterNumber":3,"parameterNumberName":"V-component_of_CURRENTS"},"data":[0,0,0,0,0,0,0,0,0,0,0,0,0,0,0,0,0,0,0,0,0,0,0,0,0,0,0,0,0,0,0,0,0,0,0,0,0,0,0,0,0,0,0,0,0,0,0,0,0,0,0,0,0,0,0,0,0,0,-0.0106,-0.0106,0,-0.0057,-0.0056,-0.0055,-0.0012,-0.0012,-0.0011,-0.0011,0.0068,0.0069,0.0071,0,0,0,0,0,0,0,0,0,0,0,0,0,-0.0133,-0.0133,-0.0106,-0.0106,-0.0105,-0.0057,-0.0056,-0.0055,-0.0012,-0.0012,-0.0011,-0.0011,0.0067,0.0069,0.0071,0,0,0,0,0,0,0,0,0,0,0,0,0,-0.0105,-0.0133,-0.0106,-0.0079,-0.0076,-0.0057,-0.0056,-0.0055,-0.0012,-0.0012,-0.0011,-0.0011,0.0066,0.0069,0.0072,0.0079,0,0,0.008,0.0081,0,0,0,0,0,0,0,0,-0.0107,-0.0104,-0.0084,-0.0081,-0.0078,-0.0042,-0.0037,-0.0009,-0.0012,-0.0035,-0.0011,-0.0011,0.0032,0.0038,0.0048,0.0082,0.0086,0.008,0.0082,0.0083,0.0084,0,0,0,0,0,0,0,-0.0109,-0.0105,-0.0085,-0.0083,-0.008,-0.006,-0.0055,-0.0031,-0.0003,-0.0033,-0.003,-0.0027,0.0034,0.0045,0.005,0.0087,0.008,0.0082,0.0084,0.0085,0.0137,0.0137,0,0,0,0,0,0,-0.0121,-0.0108,-0.0086,-0.0083,-0.0093,-0.006,-0.0055,-0.0052,-0.0003,0.0004,-0.0028,-0.0026,0.0041,0.0047,0.0053,0.0064,0.0083,0.0085,0.0087,0.0138,0.0137,0.0137,0,0,0,0,0,0,-0.0121,-0.0119,-0.0088,-0.0096,-0.009,-0.006,-0.0058,-0.0052,-0.0041,-0.0,0.0008,-0.0024,0.0041,0.005,0.0073,0.0068,0.0087,0.0089,0.0138,0.0138,0.0137,0.0086,0,0,0,0,0,0,-0.0122,-0.012,-0.0123,-0.0097,-0.0091,-0.0084,-0.0058,-0.0051,-0.0041,-0.0038,0.0005,0.0013,0.0042,0.0069,0.0076,0.0072,0.0091,0.0138,0.0138,0.0137,0.0088,0.0084,0.0081,0,0,0,0,0,-0.0123,-0.0129,-0.0123,-0.0121,-0.0096,-0.0085,-0.008,-0.0055,-0.0042,-0.0043,-0.001,0.0012,0.0071,0.0071,0.0079,0.0076,0.0138,0.0138,0.0137,0.009,0.0085,0.0081,0,0,0,0,0,0,-0.0143,-0.0125,-0.0118,-0.0118,-0.0107,-0.0078,-0.0076,-0.0061,-0.0036,-0.0031,0.001,0.002,0.0038,0.0063,0.0062,0.009,0.0108,0.0109,0.0069,0.0065,0.0061,0.005,0.0093,0,0,0,0,0,-0.0151,-0.015,-0.0132,-0.0134,-0.0129,-0.0105,-0.0097,-0.0083,-0.0058,-0.0047,-0.0017,0.0015,0.0042,0.0058,0.0084,0.0099,0.0131,0.0102,0.0098,0.0095,0.0091,0.0137,0.0137,0.0135,0.0135,0.0135,0,0,-0.016,-0.015,-0.015,-0.0139,-0.0126,-0.0127,-0.0098,-0.0092,-0.0091,-0.0042,-0.003,0.0002,0.0043,0.0061,0.0071,0.0081,0.0111,0.0094,0.0091,0.0089,0.0137,0.0137,0.0137,0.0135,0.0135,0.0135,0,0,-0.0179,-0.0169,-0.0176,-0.0171,-0.016,-0.0145,-0.0147,-0.0124,-0.0111,-0.0098,-0.006,-0.003,0.0004,0.0037,0.0058,0.0049,0.0089,0.0054,0.0028,0.0073,0.0073,0.0074,0.011,0.0115,0.0053,0.0053,0.0053,0,-0.0192,-0.0197,-0.0177,-0.0185,-0.0186,-0.0158,-0.0169,-0.0153,-0.0126,-0.0114,-0.0103,-0.004,-0.0006,0.0027,0.0023,0.0041,0.0069,0.0041,0.0068,0.0069,0.0071,0.0108,0.0114,0.0051,0.0051,0.0051,0.0052,0,-0.0214,-0.0223,-0.0227,-0.0227,-0.0226,-0.0231,-0.0212,-0.0205,-0.0188,-0.0166,-0.0135,-0.0086,-0.0046,-0.0032,-0.0008,0.0021,0.0037,0.0056,0.0077,0.0068,0.0108,0.0115,0.0047,0.0048,0.0049,0.0049,0,0,-0.0234,-0.0242,-0.0245,-0.0259,-0.0251,-0.0254,-0.0252,-0.024,-0.0235,-0.0203,-0.0187,-0.0138,-0.0105,-0.008,-0.0039,-0.0002,0.0034,0.0025,0.0028,0.0057,0.0126,0.0115,0.0122,0.0058,0.0058,0.0059,0.0147,0,-0.026,-0.0289,-0.0281,-0.0312,-0.0326,-0.0307,-0.0309,-0.0293,-0.0269,-0.0246,-0.0187,-0.0157,-0.0125,-0.0104,-0.0063,0.0012,0.005,0.0008,0.0133,0.0137,0.0127,0.0129,0.0062,0.0152,0.0154,0.0155,0.0156,0,-0.0284,-0.0303,-0.0338,-0.0359,-0.0362,-0.0375,-0.0372,-0.0369,-0.0325,-0.0304,-0.0259,-0.0209,-0.0147,-0.012,-0.0002,-0.0031,0.0037,0.0095,0.0101,0.0113,0.0139,0.0166,0.0169,0.0168,0.0167,0.0166,0.0165,0,-0.0312,-0.0342,-0.0375,-0.0383,-0.0398,-0.041,-0.0413,-0.0387,-0.0385,-0.0336,-0.032,-0.0239,-0.0193,-0.0101,0.0012,0.0008,0.0144,0.0159,0.0216,0.0216,0.0222,0.0221,0.0242,0.0241,0.0241,0.0241,0.0241,0,-0.0342,-0.037,-0.0395,-0.0417,-0.0456,-0.0448,-0.0472,-0.0459,-0.0434,-0.0423,-0.0352,-0.0318,-0.0187,-0.0093,0.0005,0.0128,0.0143,0.0211,0.0239,0.0198,0.0193,0.0227,0.0224,0.0244,0.0244,0.0243,0.0242,0,-0.0369,-0.0383,-0.0429,-0.0461,-0.0474,-0.0502,-0.0524,-0.0532,-0.0501,-0.0483,-0.0468,-0.0369,-0.0246,-0.0114,0.0049,0.0119,0.024,0.0281,0.0222,0.0245,0.0284,0.0277,0.0351,0.0351,0.0351,0.0352,0.0352,0,-0.0385,-0.0411,-0.0469,-0.0503,-0.0523,-0.056,-0.0582,-0.057,-0.057,-0.051,-0.0497,-0.0382,-0.0301,-0.008,0.0052,0.0239,0.0263,0.0321,0.0303,0.0276,0.0296,0.0289,0.0282,0.0352,0.0352,0.0353,0.0353,0,-0.042,-0.0442,-0.0481,-0.0551,-0.0592,-0.0628,-0.0652,-0.0656,-0.0623,-0.06,-0.0506,-0.0385,-0.0246,-0.0079,0.0065,0.0198,0.0279,0.0324,0.0325,0.0309,0.0279,0.0297,0.029,0.0354,0.0354,0.0353,0.0353,0,-0.0443,-0.0482,-0.0536,-0.0594,-0.0647,-0.0675,-0.0684,-0.0666,-0.0654,-0.0576,-0.0545,-0.0387,-0.0292,-0.01,0.0033,0.016,0.019,0.0225,0.0231,0.0231,0.0166,0.0108,0.0155,0,0,0,0,0,-0.0461,-0.051,-0.0574,-0.0632,-0.0682,-0.0707,-0.0721,-0.0714,-0.068,-0.0617,-0.0577,-0.0442,-0.023,-0.0137,-0.0011,0.0026,0.0199,0.0176,0.0238,0.036,0.0359,0.03,0,0,0,0,0,0,-0.0476,-0.0542,-0.0579,-0.0648,-0.069,-0.0733,-0.0741,-0.0716,-0.067,-0.0618,-0.0504,-0.0426,-0.0222,-0.0305,-0.0015,0.0024,0.0077,0.028,0.0283,0.0361,0.0359,0.0358,0.0298,0,0,0,0,0]}]]